Wind_Speed
7 7 7 8 9 10 11 12 13 14 14 14 14 14 13 12 12 10 7 5 3 3 3 3 4 4 5 5 4 3 3 4 4 4 4 4 5 7 8 6 5 6 8 11 13 13 14 13 12 8 7 10 8 6 3 3 5 3 2 2 2 2 2 3 4 3 2 2 4 5 8 5 1 2 2 7 20 25 20 19 19 15 20 23 25 31 33 30
7 7 7 8 9 10 11 12 13 14 14 15 15 14 13 12 12 11 9 7 5 4 4 4 4 5 5 5 4 3 3 4 5 4 3 3 3 5 6 7 7 8 10 12 13 13 12 11 10 8 9 10 6 4 4 3 4 2 2 2 1 3 2 2 4 4 3 4 4 6 8 6 2 1 2 5 13 22 18 16 22 24 25 26 31 34 32 31
6 6 7 8 9 10 12 12 13 13 14 15 15 14 13 11 11 11 11 9 7 6 5 5 5 5 6 5 4 3 2 3 3 1 1 3 2 0 2 5 7 9 10 11 12 12 9 8 8 7 11 11 7 6 5 3 2 3 3 2 2 3 3 3 4 3 7 7 6 7 7 6 6 2 2 7 13 18 15 17 23 26 29 31 35 35 32 31
5 5 6 7 9 10 12 12 13 13 14 14 15 14 13 12 11 11 11 11 9 7 5 5 5 5 6 5 4 3 2 2 1 4 4 2 2 2 1 4 7 10 10 11 12 11 9 10 10 10 12 9 7 7 5 5 3 2 3 2 3 2 2 3 5 1 7 11 10 9 6 5 8 4 6 16 12 8 13 23 28 31 32 33 36 34 31 29
5 5 6 7 9 11 12 13 13 13 13 14 15 14 14 13 11 11 11 11 10 8 6 5 5 5 5 5 3 2 2 3 3 5 5 3 2 2 1 4 8 9 11 13 12 11 11 12 11 11 11 6 6 5 4 9 5 1 2 3 3 2 1 3 5 5 5 12 11 11 7 6 7 3 12 23 11 7 18 26 31 34 33 34 36 34 29 25
4 4 6 7 9 11 12 12 13 13 13 14 15 14 14 13 12 12 11 11 11 8 6 4 4 4 4 3 3 2 1 1 2 4 4 6 3 2 2 4 9 10 13 15 13 11 10 9 6 7 7 4 5 4 4 10 7 1 1 2 2 1 2 5 6 6 6 8 6 6 6 6 5 2 13 20 14 19 27 30 32 33 32 33 33 29 25 21
4 4 6 7 9 10 12 12 13 13 14 15 15 14 13 13 13 12 12 11 10 8 6 4 4 4 3 2 1 1 2 2 2 3 3 6 4 3 5 6 9 11 15 15 13 10 6 4 6 8 5 3 6 6 6 12 8 3 0 1 3 3 3 5 6 6 8 8 5 1 4 5 5 4 6 10 18 27 30 31 32 32 30 28 27 25 23 22
4 5 6 7 9 10 12 13 13 13 15 15 15 15 12 12 12 12 12 11 10 8 5 4 3 2 2 0 1 2 4 3 1 0 5 6 4 3 7 8 10 12 16 15 10 6 2 4 8 8 4 4 7 7 9 11 5 3 2 2 3 5 6 7 5 6 8 6 4 3 4 6 7 6 3 8 24 32 30 31 30 30 28 27 26 25 24 24
4 5 6 7 9 11 12 13 13 14 16 16 16 15 13 12 12 12 13 12 11 8 5 3 2 1 1 1 1 2 2 1 1 4 7 4 3 5 8 9 10 11 16 15 7 4 3 5 7 8 6 3 8 10 13 10 3 6 6 6 4 4 6 6 5 6 7 5 5 5 3 4 8 8 3 10 28 32 30 31 28 27 28 27 26 24 23 22
5 6 7 8 9 11 12 13 14 15 16 16 15 14 13 12 12 12 13 12 10 7 4 3 1 1 2 1 0 1 2 2 2 6 7 2 4 8 9 9 9 11 15 13 7 4 4 7 12 14 8 2 8 10 14 7 4 10 10 8 5 6 5 3 4 5 7 8 9 5 4 5 3 6 2 11 28 31 30 29 27 27 27 26 24 22 20 20
6 6 7 9 10 11 12 14 15 15 16 16 15 14 13 13 12 12 13 12 10 6 4 2 1 1 1 1 3 2 2 2 3 6 7 3 5 9 9 9 9 10 12 10 6 2 7 9 13 10 3 2 5 7 8 5 10 17 14 8 6 7 4 4 4 5 7 8 12 8 4 6 2 4 4 14 29 29 29 29 27 27 25 24 22 20 19 21
7 7 8 9 10 11 13 14 15 15 15 15 15 14 13 12 12 12 12 11 9 6 4 3 3 3 3 4 5 2 3 1 3 5 5 2 6 8 7 7 7 6 6 6 5 6 8 8 10 6 3 2 5 4 3 9 16 15 10 5 3 4 3 5 5 6 7 3 3 6 4 5 3 3 6 15 27 28 29 29 25 25 25 22 20 19 19 23
8 8 9 10 11 12 13 14 15 15 14 13 14 13 12 12 12 12 11 10 8 6 5 4 4 5 6 6 3 2 2 1 3 3 4 2 6 6 4 4 3 3 4 7 8 8 6 5 8 7 5 3 6 5 7 13 12 7 4 3 2 3 3 4 3 5 6 2 5 5 1 3 5 4 6 12 22 27 28 25 22 23 24 21 19 19 20 23
8 9 10 10 11 12 13 14 15 14 13 12 12 13 12 11 12 11 10 9 7 5 5 4 4 6 7 4 2 0 1 2 4 5 6 4 4 3 2 3 1 3 6 10 8 6 5 5 8 7 4 3 8 9 9 7 4 3 2 2 2 2 1 3 2 6 4 2 5 6 1 5 6 6 4 8 17 26 24 21 23 23 22 21 20 21 22 23
9 10 10 11 12 12 14 14 14 13 12 10 10 12 12 11 11 10 8 7 5 5 5 4 5 7 9 6 3 2 3 6 9 8 7 7 6 5 4 4 4 2 4 9 8 6 6 6 7 7 4 1 10 9 4 2 2 1 1 2 2 2 1 3 3 6 3 2 4 5 2 4 5 7 7 4 12 24 21 20 24 21 21 21 21 23 22 22
10 11 11 12 12 12 13 13 13 11 9 9 9 11 12 11 10 9 7 5 3 3 4 5 6 7 8 5 2 2 6 9 7 5 6 6 6 8 7 5 9 6 4 6 5 4 5 5 6 6 6 3 6 5 3 2 1 1 2 2 2 2 1 1 4 6 4 3 1 2 2 2 4 7 8 4 10 22 18 19 23 21 20 21 23 24 20 22
12 12 12 13 12 13 13 13 12 8 7 8 9 12 13 11 8 6 5 4 3 5 6 6 8 9 6 4 2 4 6 6 5 5 5 4 4 6 6 5 10 10 7 5 5 6 6 5 4 4 5 2 4 5 3 0 3 2 1 1 2 3 2 1 4 6 4 2 1 2 1 3 4 6 6 3 9 19 19 19 22 21 20 21 24 22 18 22
13 13 13 13 12 13 12 13 11 7 6 8 11 14 12 9 9 8 6 5 6 7 8 8 7 7 4 6 4 4 7 6 6 5 4 5 4 4 6 6 6 9 10 8 8 8 7 5 2 1 3 1 3 5 4 4 4 4 3 2 2 2 3 3 3 6 6 1 3 3 1 3 4 7 6 4 7 16 17 17 18 20 21 22 24 21 18 23
14 13 13 13 12 12 12 12 9 7 8 10 13 13 9 8 8 7 7 8 9 8 6 7 7 3 6 11 8 6 7 6 4 5 6 7 7 6 7 7 7 7 7 5 6 9 7 3 0 0 3 4 4 6 7 7 8 8 5 4 4 2 2 3 3 5 8 4 3 4 2 1 6 8 6 5 4 12 13 13 15 18 20 22 24 21 20 22
14 14 14 13 12 12 11 10 9 8 9 10 13 12 10 11 7 2 8 13 16 14 12 14 15 15 16 16 8 8 7 4 3 6 8 7 8 8 7 8 9 6 4 5 4 7 8 3 3 5 7 6 6 8 9 7 8 8 5 4 5 4 1 1 4 2 5 4 2 2 4 3 6 7 7 8 2 6 12 16 16 16 17 19 21 21 22 21
16 14 14 14 12 12 11 10 9 7 10 11 12 11 10 10 6 5 13 20 22 19 17 18 19 21 19 13 8 9 6 5 5 7 8 8 8 7 7 8 5 3 6 7 3 3 6 4 7 10 9 7 6 7 10 9 8 7 5 5 4 3 0 3 4 1 2 3 1 2 3 4 5 5 7 8 5 3 7 18 18 16 14 16 19 23 24 21
17 14 14 14 12 11 10 10 9 8 10 10 11 13 10 8 6 8 13 17 20 18 17 18 18 20 18 14 10 7 6 6 7 8 10 11 10 7 7 6 4 3 5 4 1 1 3 5 11 14 9 5 5 7 12 10 7 5 4 5 3 2 2 4 4 2 2 2 2 3 4 4 4 4 7 7 2 3 1 11 18 19 18 18 19 24 26 24
18 16 14 13 12 12 10 10 10 10 11 10 13 18 12 6 6 11 12 10 14 18 18 18 18 20 18 16 11 7 7 7 8 10 12 14 13 10 8 6 4 4 2 2 4 3 3 7 14 16 8 7 7 9 10 6 4 4 4 5 3 4 3 2 4 4 2 2 3 3 2 1 3 3 5 7 3 3 0 3 10 16 22 22 18 22 28 27
19 17 15 13 12 12 10 11 10 11 11 9 14 18 13 9 11 14 13 6 7 13 14 14 16 17 17 15 10 8 8 8 9 13 16 15 12 8 7 7 5 4 5 6 9 7 6 13 15 11 7 9 10 9 7 5 3 4 4 5 5 6 3 3 6 5 3 3 3 5 2 3 2 3 4 4 2 3 3 3 5 11 19 20 16 20 28 30
20 18 16 14 12 12 11 12 10 10 11 9 11 13 12 13 14 16 13 4 4 7 7 9 11 10 10 12 11 9 7 7 9 15 18 14 12 7 4 6 5 4 7 7 7 6 10 18 15 6 7 10 9 9 10 7 4 3 4 6 9 9 6 10 10 5 2 1 2 5 3 3 3 4 6 3 2 3 3 4 6 8 12 14 14 19 27 29
22 20 18 16 13 11 11 11 10 11 11 9 8 9 10 9 11 15 10 2 3 5 3 4 6 6 8 10 11 7 2 5 9 14 16 10 11 8 2 3 3 3 6 4 2 3 6 12 10 5 5 5 5 6 10 8 6 3 5 7 11 10 11 14 12 5 1 2 2 3 4 2 2 4 7 5 3 5 4 4 8 10 12 13 14 18 25 29
23 22 19 17 15 12 11 11 12 11 11 10 8 8 10 7 8 12 5 2 3 3 2 4 5 5 7 8 10 5 1 4 10 15 15 9 9 10 5 3 2 4 4 3 2 3 3 5 4 3 2 4 4 2 6 9 6 3 6 12 12 11 13 14 10 4 2 3 3 2 3 1 2 4 7 6 5 6 6 5 8 11 14 14 15 16 23 31
24 23 21 18 16 14 13 13 14 11 9 10 10 10 10 7 8 5 2 2 2 2 2 4 5 5 6 7 12 9 5 10 10 10 16 10 7 8 4 5 4 5 4 1 2 6 1 2 4 1 0 2 2 4 5 9 5 5 10 15 12 11 13 11 7 3 3 4 3 2 2 1 3 4 4 7 7 8 9 8 8 13 17 17 16 15 21 32
24 24 22 19 17 15 14 14 14 9 7 10 10 10 9 7 6 3 4 1 2 3 3 5 4 6 8 7 12 12 9 12 8 8 14 11 8 7 3 7 6 5 5 4 5 6 2 3 3 1 1 2 4 4 2 6 3 4 12 12 8 7 7 5 4 3 3 2 1 6 5 2 3 3 3 6 7 9 10 8 9 15 17 15 14 12 17 31
24 24 23 21 18 16 15 14 13 9 8 9 9 9 10 7 3 4 2 1 3 3 4 5 3 7 9 5 6 9 8 11 8 8 12 10 10 10 5 7 5 2 4 1 3 6 6 8 7 2 4 4 2 1 3 4 7 11 12 8 7 5 3 3 2 3 3 2 2 7 9 4 1 3 4 4 4 6 8 7 9 13 12 13 18 15 15 28
24 23 22 22 19 17 17 14 9 8 9 8 9 11 10 4 3 4 1 3 3 2 3 3 3 5 8 5 4 5 4 6 7 8 8 4 4 6 3 2 2 3 4 5 4 6 6 6 5 3 5 2 3 2 4 4 9 12 7 5 6 3 3 3 3 3 2 3 4 4 8 5 1 3 3 4 3 3 6 6 7 8 10 18 25 18 13 23
25 23 22 21 20 18 17 14 8 7 8 7 9 10 5 3 2 2 3 4 3 3 3 4 5 4 6 7 4 4 4 4 6 8 7 4 3 4 3 3 2 3 3 3 3 5 5 4 3 2 3 3 5 1 4 5 6 7 6 7 6 2 1 1 2 1 1 3 3 4 7 4 3 4 3 5 5 4 7 7 5 5 9 16 19 10 9 15
25 24 21 19 20 18 16 13 9 10 9 7 8 6 4 4 1 4 3 2 2 4 3 4 6 6 6 6 5 6 6 4 6 7 6 5 4 4 4 5 6 4 2 4 2 3 4 5 1 2 2 1 5 3 1 0 3 5 6 6 4 3 2 3 2 1 2 3 1 2 5 2 3 3 3 4 4 3 7 10 11 8 5 11 18 14 12 12
25 24 22 20 18 16 13 10 10 12 11 8 4 4 4 2 4 4 2 4 5 4 2 2 5 5 5 5 5 5 4 3 6 6 4 4 3 3 3 5 6 5 2 1 2 0 3 4 1 3 3 3 4 5 6 5 3 5 6 5 4 4 4 4 3 2 2 1 1 1 2 2 2 2 3 4 3 2 5 7 10 10 5 9 17 19 18 13
26 23 21 20 16 10 8 9 10 12 12 7 2 4 3 3 4 2 2 4 4 3 4 3 2 3 3 3 4 4 4 3 5 5 4 4 4 4 4 5 6 5 2 1 1 1 4 2 4 3 2 5 4 5 6 5 1 3 2 5 2 5 5 2 3 4 4 2 1 1 2 2 2 1 2 3 4 4 3 2 6 8 8 8 14 22 24 19
28 22 17 17 13 7 6 9 12 13 12 7 4 1 4 4 4 2 2 3 5 5 6 7 2 1 3 3 3 3 3 2 4 4 2 3 2 3 4 3 5 6 5 3 1 2 4 3 6 4 4 2 5 5 4 4 1 2 1 1 5 5 6 4 1 2 4 3 1 1 1 1 1 1 3 3 3 2 2 1 3 3 6 7 13 21 20 20
29 25 18 13 8 7 6 7 12 14 12 8 4 4 5 4 6 5 3 5 9 8 3 3 2 0 2 2 3 5 3 1 2 3 2 1 1 3 2 2 2 5 5 4 1 1 3 2 5 3 4 2 3 3 5 4 2 1 2 4 3 1 4 4 2 2 2 2 2 1 1 2 1 0 3 2 2 2 2 1 1 1 4 9 13 18 14 17
32 28 18 7 3 10 8 6 12 15 11 6 2 4 3 4 7 5 7 10 10 8 3 1 2 1 1 2 4 6 3 2 3 4 1 0 2 3 2 2 1 1 6 7 3 1 3 1 6 4 3 4 4 7 5 6 6 1 3 2 1 1 1 1 2 2 1 1 2 2 1 2 3 2 4 5 5 5 2 1 0 2 3 9 12 16 17 20
29 23 11 5 4 8 8 8 13 14 7 3 2 4 2 5 8 9 11 11 8 6 4 3 2 1 3 2 3 4 1 2 5 3 1 1 2 2 2 3 1 4 8 10 4 1 3 3 3 6 5 3 5 6 3 7 7 3 2 3 3 2 2 1 1 2 3 2 1 1 1 2 3 3 4 6 5 6 4 1 1 3 6 10 13 16 20 23
24 16 7 4 5 7 8 11 13 10 4 2 4 3 3 5 9 13 15 12 7 6 5 3 2 1 3 2 1 2 1 3 4 2 2 3 2 2 2 2 4 5 11 12 6 1 3 4 1 6 6 4 3 2 2 4 5 3 4 4 3 2 1 1 1 1 3 3 1 1 1 4 4 2 2 4 4 5 5 3 2 5 8 11 13 17 21 23
20 10 4 5 8 10 11 13 8 4 2 2 3 3 4 6 9 15 21 19 12 10 9 4 2 3 3 2 2 1 2 2 1 1 2 3 3 1 3 2 5 6 8 9 6 2 1 3 2 2 4 3 1 3 3 5 3 2 3 1 2 2 2 3 2 3 2 3 2 2 1 5 4 1 3 3 4 4 5 5 3 3 7 10 11 14 17 19
17 6 3 6 13 14 12 8 3 3 3 3 5 5 6 7 9 12 18 21 15 11 10 6 3 3 3 2 2 1 1 2 2 2 1 2 4 2 1 5 11 12 8 3 1 1 2 3 3 1 1 1 4 4 3 5 4 5 3 0 1 3 4 4 1 3 2 2 1 2 1 4 4 2 5 5 5 5 5 5 5 4 5 7 9 11 14 15
17 13 5 7 9 11 8 1 3 2 2 6 8 10 11 9 8 9 11 14 12 7 4 3 2 2 2 2 1 1 2 1 1 1 1 2 2 1 4 12 16 13 7 2 1 1 2 3 3 1 4 4 5 5 5 5 5 4 2 1 2 2 3 5 4 2 1 1 1 2 1 4 4 3 7 8 7 7 5 4 4 5 7 8 8 10 13 14
21 18 6 2 4 3 5 3 2 3 4 6 6 9 13 12 10 11 9 9 9 3 1 3 2 3 3 2 2 2 2 2 1 0 2 1 1 3 7 14 12 5 3 3 3 2 1 1 3 3 3 6 7 7 6 6 4 2 2 3 0 3 5 3 2 3 2 1 2 3 1 4 3 3 6 7 6 6 5 5 6 6 7 9 9 8 10 14
16 13 9 12 12 4 1 2 2 3 4 5 6 7 9 10 12 17 15 12 13 8 3 5 4 4 3 1 1 4 2 5 1 2 2 1 2 1 5 12 10 5 6 10 10 7 3 3 4 4 3 0 2 2 3 3 2 1 2 3 2 3 5 3 2 4 2 1 2 4 3 3 2 3 4 4 3 5 5 5 5 5 8 10 10 9 10 15
8 4 8 14 12 7 7 10 10 6 3 4 6 6 6 6 9 15 14 11 14 14 8 6 4 2 1 1 2 2 2 2 1 1 1 0 1 1 8 13 12 11 13 15 13 7 3 2 3 6 6 5 6 6 5 3 1 3 3 3 2 2 5 5 3 2 3 2 0 3 4 2 1 2 2 4 4 4 5 5 5 5 7 10 11 11 11 14
3 2 5 8 8 9 11 14 16 11 8 7 4 5 8 6 5 9 9 7 11 12 8 5 3 2 0 1 0 1 3 3 3 1 1 1 1 4 8 9 10 13 15 13 11 6 5 1 2 6 7 6 7 7 6 3 3 2 1 1 2 2 6 6 3 2 4 3 2 5 4 4 4 4 3 6 5 5 5 5 6 5 5 8 11 12 12 13
2 4 5 5 4 4 6 10 13 12 12 11 4 4 8 7 3 4 6 10 15 10 4 3 3 5 5 3 1 1 2 5 5 2 2 1 1 1 1 4 6 12 12 8 7 6 5 2 4 5 5 6 6 6 3 3 2 1 3 2 2 4 6 6 2 3 6 4 4 5 6 4 5 4 3 7 7 6 5 4 4 5 6 9 12 13 13 12
4 4 6 7 4 5 8 12 15 12 9 8 5 3 5 7 6 4 4 6 10 9 4 2 5 7 7 5 4 2 1 1 2 4 3 2 1 1 2 2 3 7 5 3 3 4 5 2 5 4 4 4 3 2 3 4 2 2 2 3 3 5 6 6 3 2 5 4 3 5 7 4 4 5 3 9 10 8 6 6 6 7 8 11 12 12 13 13
5 3 7 9 7 9 11 12 11 8 7 6 4 4 5 7 7 6 4 3 5 7 5 4 5 6 7 6 4 3 5 7 5 6 4 2 2 1 2 2 2 1 2 2 1 1 3 2 3 3 3 3 3 2 3 4 3 0 2 1 5 6 6 6 4 4 6 4 2 6 5 2 4 5 1 9 12 10 8 8 9 8 8 11 11 11 13 14
1 1 6 7 5 6 6 7 7 5 4 4 3 4 6 8 10 9 7 5 5 6 5 5 7 7 4 2 2 5 8 8 8 9 6 6 4 2 2 2 4 2 1 1 2 2 2 1 1 4 3 3 3 3 3 1 3 2 3 2 5 5 4 3 2 3 4 5 5 5 2 2 4 4 1 6 9 9 8 9 12 12 11 12 13 13 13 12
4 4 3 2 2 4 3 5 5 3 3 4 7 9 8 11 15 11 6 6 10 15 13 5 7 5 5 5 3 6 13 12 10 12 12 10 10 8 4 3 6 5 2 2 3 2 3 3 1 3 2 4 3 3 3 4 5 3 4 5 5 4 4 3 1 3 4 6 6 4 4 4 4 5 3 4 6 7 8 10 12 14 14 14 14 14 12 10
Wind_Direction
53 67 62 51 41 34 29 24 19 15 15 14 13 13 10 9 6 3 356 341 316 288 269 268 276 278 284 281 273 254 245 265 262 248 219 191 171 174 173 161 155 167 168 162 167 167 167 173 165 164 207 215 220 228 204 152 143 135 91 97 111 129 169 187 163 190 232 199 191 167 163 153 205 220 89 116 139 144 143 139 138 133 132 142 152 154 152 155
58 66 55 44 36 30 26 22 19 15 12 11 10 8 6 8 5 2 358 347 326 304 284 276 277 278 285 285 282 268 258 271 279 275 225 179 173 188 181 165 161 172 177 172 176 173 169 173 161 172 209 213 220 198 169 157 149 148 97 91 155 170 187 159 138 187 212 182 154 133 154 164 185 233 102 85 120 129 126 127 127 125 127 135 147 151 153 157
58 58 47 40 32 26 24 21 19 16 12 9 6 2 1 3 2 1 359 353 343 321 300 290 283 285 289 292 291 273 290 310 287 272 132 127 110 103 194 173 167 175 181 177 181 182 181 178 166 196 219 216 213 189 175 161 165 183 130 71 232 212 190 115 102 207 220 190 147 140 159 167 186 230 96 106 110 116 124 136 131 131 134 137 147 152 153 155
54 49 39 32 27 24 22 20 18 16 11 7 1 356 353 356 356 355 355 353 350 335 318 303 288 293 294 297 295 279 355 25 170 123 97 83 29 0 219 190 173 172 178 176 182 192 207 203 200 231 228 210 189 185 187 169 161 175 143 142 240 250 160 91 51 4 216 194 169 153 164 181 194 237 120 119 105 106 134 142 141 142 143 141 148 152 152 156
49 40 31 25 22 20 18 16 15 14 10 4 357 349 347 351 353 351 349 349 348 343 332 313 296 299 298 303 299 288 56 76 125 107 70 15 328 284 207 184 175 173 175 178 188 198 220 226 231 244 222 188 161 171 193 179 166 104 142 159 225 293 44 18 29 57 152 174 169 156 166 194 198 231 142 133 126 153 145 144 145 147 148 147 150 153 155 159
45 32 25 20 18 16 13 12 11 11 8 3 354 344 341 345 350 352 348 345 345 344 337 322 309 304 303 314 307 297 101 111 116 108 36 4 337 238 206 187 176 175 176 180 190 197 228 244 261 256 207 174 172 175 170 172 166 133 176 138 150 320 359 0 28 64 95 122 129 154 177 193 172 124 149 146 146 152 148 148 147 148 152 152 154 158 162 167
45 26 20 16 14 12 10 9 8 7 5 2 356 346 340 340 347 351 349 346 344 342 337 329 321 313 319 324 340 316 269 274 124 130 345 353 337 235 197 189 178 179 179 182 189 195 234 273 302 283 221 193 194 181 158 163 160 133 330 278 144 121 63 36 51 71 79 81 57 136 171 162 131 111 153 145 143 148 148 149 149 150 155 157 162 166 168 169
40 18 15 11 9 7 7 7 4 3 359 359 358 352 343 340 344 348 349 347 343 342 342 340 335 330 333 25 65 329 285 297 122 248 324 330 313 219 189 184 178 182 180 180 186 191 268 300 288 274 235 220 193 164 151 152 158 158 154 220 168 112 81 68 74 77 75 69 59 97 123 123 114 122 133 115 138 147 147 149 149 152 159 165 171 171 169 169
29 11 8 3 1 3 5 4 1 360 357 357 359 356 348 342 344 347 348 348 347 348 354 356 355 7 35 128 31 342 312 20 70 340 336 308 253 184 179 176 176 183 180 183 189 194 259 290 295 302 314 235 169 150 154 150 194 202 171 175 167 89 73 80 92 81 81 65 72 93 48 72 113 123 124 126 140 145 147 150 150 155 166 171 174 172 169 171
14 4 358 353 355 359 0 360 359 359 358 356 357 357 351 345 345 347 350 352 351 356 12 20 35 102 131 160 111 354 17 49 351 343 352 324 187 168 170 166 166 176 177 184 193 205 264 309 322 320 327 144 147 149 163 165 171 168 150 143 113 78 77 79 75 65 81 45 33 61 1 349 95 125 149 144 145 148 150 152 154 161 169 172 173 170 172 175
359 351 346 347 350 353 355 356 357 358 359 356 355 357 355 350 349 349 353 356 356 8 28 38 44 103 127 242 240 280 2 33 342 338 350 355 170 162 158 153 146 158 175 189 197 271 317 321 328 329 348 129 143 139 161 156 134 141 133 109 66 74 73 43 48 41 68 33 9 25 6 336 24 136 160 151 152 154 152 154 160 166 169 168 169 170 172 171
346 339 338 342 343 347 350 352 355 357 359 357 353 355 354 352 349 348 354 358 5 22 32 45 50 31 349 298 264 320 18 0 308 316 336 23 146 147 142 152 145 150 188 217 245 316 325 313 331 354 17 85 134 115 146 141 133 135 124 103 45 60 35 16 38 39 62 65 5 44 26 333 344 181 165 151 158 157 152 156 162 165 162 161 167 172 171 167
340 334 332 335 338 342 345 347 352 355 357 357 354 351 349 348 346 345 352 2 14 32 38 37 24 358 333 298 270 25 36 276 267 286 325 35 136 134 129 149 159 191 239 275 286 311 316 303 328 349 15 96 150 154 147 138 133 132 92 89 75 38 350 339 36 74 68 91 172 126 75 265 287 259 167 148 157 155 151 156 157 157 156 159 168 171 166 164
338 330 327 331 334 337 341 344 349 352 354 356 352 346 343 342 340 339 348 3 19 35 36 23 358 340 323 294 240 222 167 213 241 251 285 270 185 170 178 175 204 223 252 272 277 300 313 306 316 322 347 103 141 138 130 121 113 127 54 36 74 85 289 306 52 98 74 316 184 141 128 222 267 287 202 156 155 155 152 151 150 153 158 164 171 165 158 162
334 327 324 326 329 335 339 342 348 351 352 353 349 342 337 337 335 331 340 1 24 22 7 355 350 340 319 294 251 268 218 209 229 233 240 241 235 251 251 226 222 206 238 249 255 284 290 288 304 306 306 116 132 128 107 66 54 113 136 319 335 121 183 306 56 90 95 240 186 145 167 232 270 278 239 203 160 160 155 149 151 159 163 165 169 161 157 163
333 326 322 323 327 333 336 341 347 350 349 348 346 339 333 331 326 321 326 340 13 356 336 332 333 336 323 294 221 235 221 209 215 202 206 225 238 258 282 262 228 212 223 242 253 276 265 271 296 289 277 250 141 128 68 49 336 276 169 219 269 148 159 328 96 109 141 176 216 195 178 213 271 270 254 256 171 162 157 152 154 161 162 160 163 161 161 164
335 326 322 323 325 330 335 338 343 348 344 341 345 343 334 320 304 309 317 316 311 300 301 293 295 311 297 248 240 231 208 189 182 181 206 230 229 257 275 241 222 223 228 240 246 252 248 248 264 267 264 229 140 115 95 308 276 261 189 212 217 151 144 176 124 133 144 136 211 216 208 208 254 290 280 271 178 167 161 157 158 162 162 157 158 160 163 164
338 328 323 322 323 328 332 335 340 341 337 342 349 350 345 322 295 283 276 287 291 292 295 263 262 314 280 241 268 218 181 158 170 175 194 219 209 243 245 220 235 239 224 221 231 233 233 233 218 279 303 250 151 122 153 216 203 196 207 178 181 129 150 181 147 146 149 114 188 184 269 255 293 312 299 294 197 178 160 155 162 164 164 161 160 163 166 165
340 330 324 320 322 326 328 332 335 331 337 351 354 357 9 359 327 283 276 292 283 287 296 250 231 252 263 280 287 213 182 157 169 186 189 207 214 226 227 225 249 242 206 195 227 217 202 224 291 221 265 234 187 168 188 202 183 184 186 157 150 136 191 180 113 144 150 139 180 167 100 306 300 302 303 318 217 182 158 150 162 165 170 170 166 170 170 167
343 332 324 319 319 321 323 327 327 328 340 357 6 9 10 0 356 330 321 308 293 292 289 271 260 254 266 286 268 193 184 173 204 214 192 195 213 218 215 221 246 251 199 166 207 211 186 191 238 224 227 208 202 203 194 184 173 170 152 139 138 128 247 61 76 111 134 124 182 141 108 185 253 276 307 333 5 160 155 150 160 175 184 178 168 171 169 167
347 336 325 317 313 316 315 315 319 326 336 351 5 3 355 353 350 339 333 318 308 306 292 283 276 267 273 282 238 195 191 201 225 220 202 199 197 204 212 213 233 270 234 203 189 188 168 191 234 233 227 212 224 205 176 172 169 154 132 129 107 107 156 59 79 44 61 102 172 120 127 190 237 260 292 323 25 78 150 149 166 191 190 180 175 170 167 165
349 341 328 314 308 310 305 306 311 311 323 340 353 352 358 11 352 330 330 313 306 304 293 292 285 273 269 265 253 227 206 213 229 221 208 200 193 201 208 196 188 224 246 213 136 87 174 228 241 235 225 202 225 187 166 174 160 128 124 129 105 147 127 66 99 123 52 97 165 158 164 196 243 253 278 296 40 69 96 149 175 195 188 187 186 171 168 166
348 344 333 315 303 301 295 298 300 301 313 329 351 358 0 1 349 337 325 293 290 295 287 280 276 272 262 252 244 215 200 215 230 223 203 192 197 213 205 188 210 240 269 175 175 191 199 238 240 234 215 164 200 202 167 156 145 137 143 133 142 183 160 75 132 132 69 91 137 140 147 257 283 286 284 280 229 155 338 156 181 194 187 188 190 175 171 169
345 343 337 320 300 291 286 289 291 298 309 323 356 10 11 356 357 347 328 289 277 289 280 268 266 266 252 236 220 200 205 224 231 214 198 193 197 207 209 207 216 251 251 208 192 192 218 244 242 232 217 185 197 206 165 139 173 183 165 143 159 180 161 112 138 140 93 82 118 120 80 309 268 271 277 278 258 209 206 216 207 192 182 183 188 182 176 172
342 339 338 328 305 285 279 283 284 291 303 325 353 10 14 1 357 347 334 318 281 280 273 264 257 245 216 203 209 209 208 243 243 203 191 200 200 188 222 224 209 244 254 231 196 194 236 249 245 231 230 215 198 187 178 171 159 182 209 173 161 160 126 117 134 136 76 72 199 143 119 277 232 219 253 271 293 257 219 213 229 210 188 182 183 183 179 174
340 335 334 333 316 286 274 279 281 286 302 326 338 351 2 357 348 341 339 26 311 272 243 227 219 203 189 194 205 199 204 264 236 193 182 198 207 198 247 250 216 247 260 264 209 197 245 248 235 198 195 197 166 164 185 180 138 178 221 159 142 135 123 134 147 145 110 177 208 140 133 248 261 212 231 240 243 256 250 224 235 230 212 200 185 182 183 181
339 333 329 329 325 303 283 277 274 284 306 317 309 321 341 343 334 334 343 35 317 247 170 182 193 197 199 200 194 172 59 206 193 191 190 193 203 201 224 263 277 265 271 356 336 257 267 289 282 207 140 83 89 141 189 167 138 207 186 138 134 133 137 153 159 147 163 135 91 89 124 133 289 235 214 212 228 254 256 240 239 236 229 218 199 191 191 187
338 333 324 322 325 313 296 277 266 277 300 303 301 308 326 338 331 338 67 40 276 177 167 195 187 202 207 197 196 193 160 160 168 202 206 202 195 181 199 236 231 264 272 80 269 272 289 341 322 255 162 80 157 221 187 140 131 207 164 139 140 147 149 159 153 134 151 113 109 207 178 122 268 263 193 184 211 237 240 237 235 233 234 226 212 208 200 190
339 332 322 317 316 310 300 276 261 271 293 297 306 311 321 333 332 18 85 69 198 181 205 181 161 204 203 185 199 204 177 171 183 207 202 201 205 197 232 244 231 273 271 171 207 261 254 256 289 75 185 221 214 249 135 120 129 156 135 121 119 130 132 132 119 114 119 89 182 199 181 162 261 269 169 171 206 223 226 230 234 233 234 231 222 220 208 194
338 331 321 313 309 308 300 276 254 256 280 292 305 316 323 325 359 63 63 254 209 200 183 172 179 194 183 164 213 213 185 193 205 194 194 192 200 214 239 252 248 307 299 289 238 257 266 276 285 226 204 206 175 35 63 126 130 109 104 98 88 79 60 60 56 69 77 356 269 194 182 168 299 266 192 180 210 217 212 213 225 227 224 231 232 232 219 198
334 331 321 309 305 303 296 283 260 250 262 279 302 316 324 332 73 89 188 264 259 200 148 193 228 186 173 170 215 213 173 204 202 178 196 191 186 218 227 266 295 28 351 332 306 291 302 293 281 225 208 158 90 22 18 70 107 104 112 121 94 51 23 27 356 26 78 272 269 191 173 161 226 259 229 221 231 214 208 205 216 205 190 214 227 237 237 206
330 327 319 306 298 293 289 288 272 241 242 263 306 324 347 30 44 173 232 313 313 197 177 208 210 197 194 188 211 215 168 200 199 174 192 184 163 206 197 193 167 55 334 287 288 312 311 265 234 214 229 121 96 357 349 33 84 103 125 126 104 68 13 340 303 297 186 242 246 163 156 168 238 241 240 235 224 210 204 201 213 184 159 199 221 241 252 225
326 324 317 300 291 287 283 282 255 223 224 251 303 339 58 82 253 232 237 297 265 216 210 194 188 191 186 185 227 218 180 199 202 188 197 176 178 223 236 215 173 130 221 234 260 318 327 301 268 89 298 96 108 135 195 204 141 137 143 148 139 125 156 241 241 250 251 247 264 141 155 193 264 244 230 231 243 236 202 199 214 215 148 194 220 228 230 244
325 324 316 297 290 288 278 265 233 216 221 241 299 33 85 126 243 246 253 254 252 244 243 188 184 198 192 193 223 194 172 224 196 184 197 164 180 240 259 241 199 158 158 229 276 2 24 336 204 159 215 180 148 169 170 157 155 180 176 156 153 154 169 213 202 181 204 224 320 0 186 192 214 244 215 206 250 252 201 191 204 215 207 203 214 217 216 227
324 324 313 298 293 283 257 237 214 206 211 209 71 77 150 218 242 254 259 260 284 303 316 333 154 186 249 260 243 181 155 215 193 181 203 176 177 210 212 223 201 169 133 105 266 14 39 315 250 258 201 155 185 210 153 111 79 250 162 106 171 200 165 161 181 168 144 118 227 220 235 204 162 255 242 213 231 234 238 200 168 189 207 207 208 213 218 217
325 323 313 301 291 262 230 220 201 195 194 165 87 125 205 222 227 228 235 255 304 319 333 340 15 117 296 304 291 237 162 177 180 171 227 201 193 231 205 193 180 169 156 134 159 27 41 304 279 336 39 140 211 211 129 107 192 264 54 134 231 196 137 121 126 113 103 106 230 222 289 300 82 338 269 242 222 227 296 286 132 160 196 204 210 213 218 210
330 329 324 313 279 213 199 209 192 185 177 140 116 215 220 235 220 221 292 326 316 310 331 336 323 137 256 296 291 244 176 96 181 179 248 253 281 277 214 134 151 181 175 132 107 168 114 313 298 27 63 257 240 109 76 64 99 112 248 241 249 97 94 104 107 41 64 115 262 272 215 234 156 179 243 235 193 197 274 268 93 26 195 207 215 213 214 202
334 332 334 348 214 184 169 181 181 173 160 128 158 234 225 245 227 232 302 316 310 305 320 257 237 168 236 300 286 251 162 103 210 192 207 251 221 239 176 116 21 126 138 116 86 217 117 59 302 345 26 297 347 56 44 354 10 42 233 240 55 51 340 30 130 158 127 145 284 291 231 216 202 189 199 199 181 171 181 249 41 46 146 186 193 200 212 212
334 330 339 46 146 170 143 156 171 159 139 124 209 234 230 254 259 269 288 296 291 285 279 237 208 34 344 305 281 281 125 164 214 192 130 180 210 247 167 129 17 30 77 96 100 295 92 106 283 319 348 332 6 42 27 327 338 2 0 9 42 148 183 159 162 154 138 163 250 297 301 263 228 209 190 191 178 154 147 132 152 132 136 164 172 181 199 208
338 332 337 61 150 176 146 148 159 147 131 196 201 233 272 276 285 290 291 292 288 276 262 209 155 341 300 297 320 308 260 208 217 189 153 166 151 321 306 145 133 71 64 73 80 50 63 82 291 306 339 27 33 26 46 341 327 0 36 27 20 10 38 88 66 66 113 144 177 122 262 270 247 210 162 164 145 135 151 146 162 171 156 162 177 183 190 198
348 338 327 66 122 164 157 147 156 149 152 224 220 242 272 277 287 294 295 294 289 268 248 209 171 201 217 281 315 272 260 269 238 169 165 170 141 136 266 202 142 110 72 62 57 48 71 82 78 323 352 36 285 277 61 54 26 81 90 71 50 50 70 69 8 309 80 116 161 145 202 268 265 110 96 117 121 136 158 155 154 166 159 163 177 185 186 193
355 328 276 106 132 164 165 155 200 193 158 233 239 239 259 269 275 285 294 299 295 269 240 208 183 197 188 229 257 269 331 350 12 14 345 160 143 146 212 124 111 106 93 76 77 124 132 97 81 34 318 257 259 288 33 63 81 98 93 126 104 84 103 111 146 277 7 58 136 116 145 266 283 61 84 90 112 138 150 150 144 117 121 149 167 175 176 182
344 317 267 144 150 182 186 220 301 211 217 249 242 250 256 255 265 273 280 284 284 277 249 226 205 200 200 197 216 344 27 41 39 49 21 49 88 148 136 112 106 102 94 76 295 71 82 74 64 331 304 307 306 326 4 34 63 68 17 339 115 92 119 141 161 169 76 28 62 65 345 269 292 36 86 98 108 122 121 111 108 98 99 118 144 165 173 177
333 315 285 89 10 274 219 238 241 228 263 257 248 257 253 248 255 260 259 258 261 270 286 265 234 199 216 173 177 221 145 114 324 17 108 67 109 181 136 115 107 104 121 154 162 120 104 102 80 52 0 345 343 350 351 354 25 54 291 297 30 111 108 102 65 69 68 273 142 120 244 266 295 26 74 92 97 94 90 95 104 104 108 117 124 139 163 174
336 319 316 343 352 350 237 271 259 256 276 281 278 263 255 258 253 249 251 253 253 249 240 256 238 202 220 133 187 257 161 131 234 321 36 63 57 29 131 131 134 142 144 149 148 137 142 147 116 109 112 10 297 301 288 287 328 321 282 311 342 101 112 111 64 71 93 242 137 141 208 262 314 11 47 55 64 70 67 77 92 103 120 128 127 129 153 169
351 332 328 337 349 13 4 1 11 0 324 322 305 273 263 267 264 268 267 254 250 245 226 231 233 184 327 50 86 292 284 129 129 39 24 42 52 201 175 159 147 137 137 146 148 132 94 89 116 137 154 179 195 218 236 187 140 302 310 339 351 100 108 105 90 109 166 167 179 202 186 167 242 252 87 59 43 56 57 40 33 65 113 126 127 133 150 166
352 338 351 341 337 355 356 358 10 1 321 323 318 279 285 273 278 305 302 298 287 261 216 202 219 134 75 285 103 263 293 349 23 68 169 196 269 222 181 149 131 134 140 151 157 125 76 63 178 152 171 200 196 214 243 192 166 236 239 4 335 61 94 96 94 178 152 116 277 240 166 144 219 228 109 77 58 65 63 27 13 39 103 125 122 125 131 144
345 325 352 355 319 342 354 335 336 330 315 320 307 271 298 294 293 327 314 325 326 304 226 189 214 191 183 195 186 237 337 7 359 312 239 182 267 279 126 102 141 159 149 151 167 134 97 173 206 166 188 224 205 201 210 153 166 213 134 110 8 53 90 96 103 176 150 143 234 206 147 156 223 234 95 82 74 78 70 39 38 71 110 125 120 118 118 121
355 323 323 341 319 294 301 301 306 308 308 316 300 269 307 307 300 305 294 325 335 319 290 250 241 226 206 179 139 148 221 7 304 281 240 189 207 86 94 87 198 186 144 116 176 134 99 189 216 168 175 226 225 199 147 112 61 359 87 100 86 108 116 104 97 130 119 126 187 146 128 154 235 242 160 110 99 101 99 81 79 90 107 117 117 116 112 110
8 359 321 329 318 291 295 298 304 310 306 303 284 271 301 308 307 316 318 317 324 321 330 343 311 270 226 201 164 189 212 180 190 247 225 130 5 300 154 169 219 231 60 66 268 65 90 200 223 125 125 259 268 217 175 143 126 164 263 103 95 108 113 106 117 112 91 93 112 100 105 168 251 265 180 103 104 114 117 92 78 85 109 113 109 106 105 104
340 313 306 316 306 286 298 307 310 315 300 286 282 300 314 323 325 333 331 312 313 323 331 5 357 335 301 264 199 237 241 202 195 223 194 126 115 195 208 169 148 113 42 97 75 47 86 125 355 72 83 268 250 171 177 132 83 54 272 206 119 117 136 139 165 166 141 141 123 94 101 222 237 254 27 87 108 122 122 102 87 92 107 108 101 97 98 100
299 278 283 325 285 272 305 317 310 304 290 310 335 329 325 329 331 338 337 324 345 340 324 351 39 10 342 358 1 304 295 277 236 204 174 127 114 132 140 154 142 132 159 137 88 98 120 108 101 97 100 280 272 140 119 49 42 355 266 198 150 129 133 118 238 223 165 140 138 155 209 214 195 190 160 124 135 130 125 120 106 104 110 108 105 102 99 99
Height
1531 1531 1530 1530 1529 1529 1528 1527 1526 1525 1524 1524 1523 1522 1521 1520 1519 1518 1517 1516 1516 1515 1515 1515 1514 1514 1514 1514 1514 1515 1515 1514 1514 1514 1514 1514 1515 1516 1516 1516 1517 1518 1519 1519 1520 1520 1521 1522 1524 1524 1525 1526 1526 1526 1526 1526 1526 1527 1530 1535 1538 1539 1538 1535 1534 1533 1531 1530 1527 1526 1524 1525 1526 1525 1525 1527 1528 1529 1533 1535 1536 1537 1538 1539 1540 1544 1546 1548
1531 1531 1531 1530 1530 1529 1528 1527 1527 1525 1524 1524 1523 1522 1521 1520 1519 1518 1517 1516 1516 1515 1515 1514 1514 1514 1513 1513 1514 1514 1514 1514 1514 1514 1513 1514 1514 1515 1515 1515 1517 1517 1518 1519 1519 1520 1521 1522 1523 1524 1525 1525 1525 1525 1526 1525 1525 1526 1530 1535 1536 1535 1533 1529 1529 1529 1527 1527 1526 1525 1525 1525 1526 1525 1525 1528 1529 1530 1533 1536 1537 1538 1540 1541 1542 1545 1547 1549
1532 1532 1531 1531 1530 1529 1529 1528 1527 1526 1525 1524 1523 1522 1521 1520 1519 1518 1517 1516 1515 1515 1514 1514 1514 1513 1513 1513 1513 1513 1514 1514 1513 1513 1513 1513 1514 1514 1515 1515 1516 1517 1517 1518 1519 1520 1521 1522 1523 1524 1525 1525 1525 1525 1525 1525 1525 1525 1529 1535 1534 1529 1528 1527 1528 1528 1526 1525 1525 1525 1526 1525 1526 1525 1527 1529 1530 1530 1532 1535 1536 1538 1540 1542 1544 1546 1548 1549
1532 1532 1532 1531 1530 1530 1529 1528 1527 1526 1525 1524 1523 1522 1521 1520 1519 1518 1517 1516 1515 1515 1514 1514 1513 1513 1513 1512 1513 1513 1513 1513 1512 1512 1513 1513 1513 1514 1514 1514 1515 1516 1517 1518 1518 1519 1520 1521 1523 1523 1524 1524 1524 1524 1523 1524 1525 1525 1528 1533 1529 1525 1527 1527 1527 1527 1526 1526 1525 1525 1526 1526 1526 1526 1528 1529 1533 1535 1533 1533 1534 1536 1539 1541 1544 1546 1548 1549
1533 1532 1532 1531 1531 1530 1529 1528 1527 1526 1525 1524 1523 1521 1520 1520 1519 1518 1517 1516 1515 1514 1514 1513 1513 1513 1513 1512 1513 1512 1513 1515 1513 1511 1512 1513 1513 1513 1513 1513 1514 1515 1516 1517 1518 1518 1519 1520 1522 1523 1522 1523 1524 1524 1523 1522 1523 1525 1527 1527 1525 1525 1527 1525 1525 1526 1525 1525 1525 1525 1526 1526 1525 1527 1528 1527 1532 1535 1533 1534 1535 1536 1539 1541 1543 1546 1547 1549
1533 1533 1532 1532 1531 1530 1529 1528 1527 1526 1525 1524 1523 1521 1520 1519 1518 1518 1517 1516 1515 1514 1513 1513 1513 1513 1512 1512 1512 1512 1513 1515 1512 1510 1512 1512 1512 1512 1512 1512 1513 1515 1516 1516 1517 1517 1518 1519 1521 1522 1521 1521 1522 1522 1522 1521 1522 1525 1526 1524 1524 1524 1525 1524 1524 1524 1524 1524 1525 1525 1525 1525 1526 1527 1527 1526 1529 1531 1531 1534 1536 1537 1540 1542 1544 1545 1547 1548
1533 1533 1532 1532 1531 1530 1529 1528 1527 1526 1525 1524 1523 1521 1520 1519 1518 1517 1516 1515 1514 1514 1513 1513 1513 1512 1512 1512 1512 1512 1512 1512 1510 1511 1511 1511 1511 1511 1511 1512 1513 1514 1515 1516 1516 1517 1518 1518 1519 1519 1520 1521 1520 1520 1521 1521 1521 1524 1526 1524 1523 1522 1523 1523 1523 1524 1524 1524 1524 1525 1525 1525 1526 1527 1527 1527 1528 1530 1532 1534 1536 1539 1541 1543 1545 1545 1547 1548
1533 1533 1532 1532 1531 1530 1529 1528 1527 1526 1525 1524 1523 1521 1520 1519 1518 1517 1516 1515 1514 1513 1513 1512 1512 1512 1512 1512 1512 1512 1511 1510 1510 1511 1511 1511 1510 1510 1510 1511 1512 1513 1514 1515 1516 1517 1518 1517 1517 1517 1519 1519 1517 1519 1520 1521 1522 1523 1525 1524 1522 1522 1523 1523 1523 1523 1523 1524 1524 1524 1525 1525 1526 1526 1527 1527 1529 1530 1533 1535 1536 1539 1542 1544 1545 1546 1547 1548
1534 1533 1532 1532 1531 1530 1529 1528 1527 1526 1525 1524 1522 1521 1520 1519 1518 1517 1516 1515 1514 1513 1513 1512 1512 1512 1512 1512 1512 1511 1510 1510 1510 1510 1510 1510 1510 1510 1510 1511 1512 1513 1514 1515 1516 1517 1517 1516 1516 1516 1518 1516 1515 1517 1518 1522 1524 1522 1522 1522 1522 1524 1524 1523 1523 1523 1523 1524 1525 1525 1525 1526 1526 1527 1528 1529 1530 1531 1533 1536 1537 1539 1541 1543 1545 1546 1547 1548
1534 1533 1533 1532 1531 1530 1529 1528 1527 1525 1525 1523 1522 1521 1520 1519 1518 1517 1516 1515 1514 1513 1512 1512 1512 1512 1512 1512 1512 1512 1510 1510 1510 1510 1510 1509 1509 1509 1510 1511 1511 1512 1513 1515 1515 1516 1516 1515 1516 1516 1516 1515 1515 1517 1517 1520 1521 1519 1521 1522 1523 1525 1524 1524 1524 1524 1525 1526 1526 1527 1527 1527 1526 1528 1531 1531 1531 1532 1534 1535 1537 1539 1541 1543 1545 1546 1547 1548
1534 1533 1533 1532 1531 1530 1528 1527 1526 1525 1524 1523 1522 1521 1520 1518 1517 1517 1516 1515 1514 1513 1512 1512 1512 1512 1512 1512 1512 1511 1510 1510 1510 1510 1510 1510 1509 1510 1510 1511 1511 1512 1513 1514 1515 1515 1515 1515 1516 1515 1516 1516 1516 1518 1518 1518 1518 1519 1521 1523 1526 1526 1524 1525 1526 1526 1527 1530 1530 1528 1528 1528 1527 1529 1531 1531 1532 1533 1533 1535 1537 1539 1541 1543 1545 1546 1547 1547
1534 1533 1532 1531 1530 1529 1528 1527 1526 1525 1524 1523 1522 1521 1520 1519 1518 1517 1516 1515 1514 1513 1513 1513 1513 1513 1513 1512 1512 1510 1509 1510 1510 1510 1510 1510 1510 1511 1511 1511 1511 1512 1512 1513 1513 1514 1515 1515 1515 1516 1516 1516 1517 1520 1521 1519 1519 1521 1521 1525 1528 1526 1526 1526 1527 1528 1529 1533 1532 1529 1534 1534 1531 1530 1529 1530 1532 1532 1533 1535 1537 1539 1541 1542 1544 1546 1546 1547
1534 1533 1532 1531 1530 1529 1528 1526 1525 1525 1523 1523 1522 1520 1519 1518 1518 1517 1516 1515 1514 1513 1513 1513 1513 1513 1513 1511 1510 1510 1510 1510 1510 1510 1510 1511 1511 1511 1511 1512 1511 1512 1512 1512 1512 1514 1514 1514 1515 1515 1515 1516 1518 1519 1520 1519 1521 1524 1523 1526 1530 1530 1530 1528 1527 1529 1529 1532 1530 1531 1543 1543 1533 1529 1528 1530 1532 1532 1533 1535 1537 1539 1540 1542 1544 1545 1546 1547
1534 1533 1532 1531 1530 1529 1527 1526 1525 1524 1523 1522 1521 1520 1519 1518 1518 1517 1516 1515 1514 1514 1514 1514 1513 1513 1512 1511 1510 1510 1510 1510 1510 1509 1509 1510 1510 1511 1511 1511 1511 1511 1511 1511 1512 1513 1513 1514 1514 1513 1514 1515 1516 1517 1519 1522 1523 1526 1526 1528 1532 1535 1535 1529 1528 1532 1533 1533 1530 1533 1546 1544 1533 1529 1528 1530 1532 1532 1533 1535 1537 1539 1541 1542 1543 1545 1546 1547
1534 1533 1532 1531 1530 1528 1527 1526 1525 1523 1523 1522 1521 1520 1519 1518 1517 1516 1516 1515 1515 1515 1514 1514 1513 1513 1511 1509 1509 1509 1510 1510 1510 1509 1509 1510 1509 1510 1510 1511 1511 1511 1512 1512 1512 1513 1513 1513 1512 1512 1513 1514 1516 1519 1523 1525 1525 1527 1531 1534 1535 1536 1535 1532 1530 1534 1536 1535 1532 1536 1545 1542 1533 1529 1529 1530 1532 1532 1533 1535 1537 1539 1541 1542 1543 1545 1546 1547
1534 1533 1532 1531 1530 1528 1527 1525 1524 1523 1522 1521 1521 1520 1518 1518 1517 1516 1516 1515 1515 1515 1514 1514 1513 1513 1512 1509 1508 1509 1509 1509 1509 1509 1509 1509 1509 1509 1510 1510 1510 1511 1512 1512 1512 1512 1513 1512 1512 1512 1512 1514 1517 1521 1527 1531 1530 1528 1531 1535 1535 1535 1537 1536 1534 1534 1534 1535 1535 1536 1541 1541 1534 1529 1529 1530 1531 1532 1534 1535 1536 1539 1540 1541 1543 1545 1546 1547
1534 1533 1532 1531 1530 1528 1527 1525 1524 1523 1522 1522 1521 1520 1518 1517 1516 1516 1516 1515 1516 1515 1515 1514 1513 1513 1511 1508 1508 1507 1507 1508 1508 1508 1508 1508 1509 1509 1509 1509 1509 1510 1511 1511 1512 1512 1512 1512 1513 1513 1512 1513 1516 1521 1532 1540 1537 1531 1531 1533 1532 1531 1536 1537 1537 1534 1531 1534 1537 1536 1537 1538 1532 1528 1530 1530 1530 1532 1533 1535 1536 1538 1540 1541 1543 1545 1546 1547
1533 1532 1531 1530 1529 1528 1527 1525 1524 1523 1522 1522 1521 1519 1518 1517 1516 1516 1515 1516 1515 1515 1515 1513 1513 1515 1512 1507 1507 1506 1505 1506 1507 1507 1507 1508 1508 1509 1509 1509 1509 1510 1510 1511 1511 1511 1512 1511 1511 1514 1514 1515 1516 1521 1533 1537 1533 1530 1530 1531 1530 1530 1533 1534 1535 1534 1530 1533 1537 1537 1539 1537 1532 1529 1529 1530 1531 1532 1533 1535 1537 1538 1540 1541 1542 1544 1545 1547
1533 1532 1531 1530 1529 1528 1526 1525 1524 1523 1522 1521 1521 1519 1518 1517 1515 1515 1515 1515 1514 1514 1513 1512 1512 1515 1512 1506 1505 1506 1505 1505 1506 1506 1507 1507 1508 1508 1508 1508 1509 1509 1510 1512 1511 1510 1511 1512 1514 1518 1517 1516 1516 1518 1523 1522 1520 1523 1523 1524 1527 1531 1533 1531 1531 1531 1529 1534 1538 1539 1541 1538 1535 1532 1530 1531 1531 1532 1534 1535 1537 1538 1540 1540 1541 1543 1544 1546
1532 1531 1530 1529 1529 1527 1526 1525 1524 1523 1522 1521 1520 1519 1518 1517 1516 1515 1514 1513 1512 1511 1510 1509 1508 1508 1507 1504 1504 1506 1505 1506 1505 1505 1506 1506 1507 1507 1507 1508 1508 1508 1509 1511 1511 1508 1510 1516 1518 1516 1513 1513 1513 1511 1512 1513 1514 1517 1519 1522 1525 1531 1534 1530 1531 1531 1528 1534 1539 1539 1540 1538 1536 1533 1532 1534 1532 1531 1534 1535 1536 1539 1540 1540 1540 1542 1543 1545
1532 1531 1529 1529 1528 1527 1526 1525 1524 1523 1522 1521 1520 1519 1518 1518 1518 1517 1514 1510 1508 1508 1507 1506 1506 1505 1504 1503 1504 1504 1505 1505 1505 1505 1506 1506 1506 1507 1507 1507 1508 1510 1508 1507 1509 1508 1511 1518 1516 1509 1507 1508 1508 1507 1508 1511 1513 1515 1519 1524 1530 1534 1534 1531 1532 1531 1528 1534 1539 1538 1540 1539 1536 1533 1532 1534 1534 1533 1533 1534 1536 1538 1539 1541 1541 1541 1543 1545
1532 1530 1529 1528 1527 1527 1526 1524 1524 1523 1521 1521 1520 1519 1519 1519 1519 1518 1516 1511 1506 1505 1505 1503 1503 1503 1502 1501 1503 1504 1504 1504 1504 1504 1505 1505 1506 1506 1506 1506 1509 1510 1506 1507 1511 1513 1516 1517 1509 1502 1503 1506 1506 1505 1505 1509 1512 1517 1521 1526 1532 1534 1532 1533 1533 1530 1529 1534 1539 1538 1540 1540 1535 1532 1532 1533 1533 1534 1534 1533 1535 1537 1538 1541 1541 1540 1542 1544
1531 1529 1528 1527 1526 1526 1525 1524 1523 1522 1521 1521 1520 1519 1519 1518 1518 1517 1517 1514 1507 1503 1502 1501 1501 1501 1500 1500 1502 1503 1503 1502 1503 1503 1503 1505 1504 1504 1505 1506 1508 1509 1508 1509 1513 1518 1520 1511 1499 1496 1501 1506 1508 1505 1506 1511 1514 1518 1521 1524 1530 1531 1529 1534 1536 1533 1531 1534 1538 1538 1539 1539 1536 1534 1532 1531 1532 1533 1534 1534 1534 1536 1536 1538 1540 1540 1540 1542
1530 1528 1527 1525 1525 1525 1524 1523 1522 1521 1521 1520 1520 1519 1518 1518 1517 1516 1515 1513 1508 1501 1498 1499 1498 1499 1499 1499 1500 1501 1501 1501 1501 1501 1502 1503 1502 1503 1504 1504 1507 1509 1508 1507 1509 1514 1513 1500 1491 1494 1499 1504 1508 1508 1509 1515 1519 1519 1518 1519 1525 1528 1526 1530 1535 1534 1533 1535 1535 1536 1544 1544 1536 1537 1534 1530 1531 1532 1533 1534 1534 1535 1535 1536 1538 1539 1540 1540
1529 1528 1526 1524 1524 1523 1523 1523 1521 1521 1521 1520 1520 1518 1518 1518 1516 1516 1514 1513 1512 1502 1497 1497 1496 1497 1497 1497 1499 1499 1499 1499 1498 1499 1500 1500 1501 1502 1502 1502 1506 1509 1506 1504 1507 1511 1507 1494 1491 1496 1499 1500 1505 1509 1509 1512 1517 1519 1515 1512 1517 1521 1524 1529 1533 1535 1541 1545 1536 1535 1554 1554 1538 1537 1537 1531 1532 1531 1531 1532 1533 1533 1534 1535 1536 1537 1539 1540
1528 1527 1525 1524 1522 1521 1522 1521 1520 1521 1519 1519 1519 1517 1518 1516 1516 1516 1513 1519 1519 1503 1497 1498 1496 1496 1496 1496 1497 1498 1502 1500 1496 1498 1498 1499 1499 1500 1502 1502 1502 1504 1502 1500 1503 1504 1498 1490 1490 1495 1497 1498 1501 1506 1505 1505 1514 1519 1511 1507 1512 1517 1523 1530 1532 1536 1545 1547 1535 1532 1550 1555 1543 1538 1535 1532 1533 1531 1530 1530 1530 1532 1532 1533 1535 1536 1538 1539
1528 1526 1524 1523 1521 1520 1520 1519 1520 1520 1518 1519 1517 1516 1517 1514 1515 1514 1515 1531 1527 1502 1496 1498 1495 1495 1494 1495 1495 1499 1506 1502 1496 1498 1496 1497 1498 1498 1503 1503 1501 1502 1496 1499 1507 1501 1492 1491 1491 1492 1494 1497 1500 1502 1500 1500 1511 1516 1507 1504 1512 1516 1523 1528 1529 1534 1539 1539 1538 1536 1541 1551 1550 1538 1531 1531 1534 1533 1531 1530 1529 1529 1530 1531 1533 1534 1536 1537
1527 1525 1523 1522 1520 1519 1519 1518 1519 1518 1518 1518 1515 1517 1516 1514 1516 1512 1521 1542 1526 1496 1495 1496 1493 1494 1493 1494 1495 1496 1500 1498 1498 1499 1494 1496 1497 1496 1500 1500 1500 1500 1495 1503 1512 1501 1490 1493 1494 1492 1495 1498 1498 1496 1494 1496 1505 1507 1501 1503 1510 1513 1519 1524 1526 1533 1534 1537 1547 1544 1540 1551 1552 1535 1527 1531 1534 1534 1531 1528 1527 1527 1528 1530 1531 1533 1534 1536
1526 1523 1521 1520 1519 1518 1517 1516 1516 1517 1518 1516 1516 1517 1514 1514 1514 1511 1528 1539 1513 1493 1495 1494 1493 1494 1491 1493 1494 1493 1494 1495 1496 1496 1493 1495 1496 1495 1498 1497 1496 1498 1495 1499 1506 1498 1490 1491 1490 1491 1495 1496 1493 1490 1489 1493 1499 1499 1499 1505 1511 1516 1520 1524 1529 1534 1535 1539 1548 1545 1540 1550 1550 1535 1531 1535 1534 1532 1528 1525 1525 1524 1526 1528 1529 1531 1533 1534
1524 1522 1520 1518 1517 1516 1515 1514 1515 1516 1516 1515 1516 1515 1513 1514 1514 1523 1541 1531 1503 1495 1495 1492 1493 1491 1490 1494 1495 1492 1493 1493 1493 1493 1493 1494 1494 1494 1495 1494 1494 1497 1497 1496 1498 1494 1488 1486 1486 1488 1490 1489 1487 1488 1488 1490 1493 1496 1504 1513 1518 1522 1523 1527 1530 1533 1541 1546 1543 1539 1536 1543 1547 1538 1532 1533 1529 1525 1524 1524 1523 1523 1525 1527 1528 1530 1532 1533
1522 1521 1518 1516 1515 1514 1513 1512 1513 1514 1514 1514 1515 1513 1513 1514 1516 1536 1542 1515 1497 1498 1494 1493 1494 1489 1491 1495 1496 1494 1492 1493 1491 1493 1495 1494 1494 1495 1495 1497 1498 1500 1503 1501 1497 1493 1488 1489 1488 1485 1484 1484 1486 1489 1489 1489 1491 1498 1508 1517 1525 1531 1531 1534 1536 1536 1548 1551 1540 1533 1532 1540 1549 1539 1526 1525 1522 1519 1521 1521 1521 1522 1524 1526 1528 1529 1531 1533
1520 1518 1516 1514 1513 1512 1511 1511 1512 1513 1513 1513 1514 1512 1514 1520 1526 1533 1524 1504 1503 1502 1493 1493 1493 1489 1491 1493 1494 1494 1492 1493 1490 1491 1494 1494 1496 1497 1496 1500 1501 1508 1514 1509 1503 1498 1493 1491 1487 1485 1483 1482 1488 1495 1496 1494 1496 1504 1512 1518 1531 1545 1550 1549 1549 1547 1549 1546 1535 1530 1534 1542 1544 1532 1522 1521 1518 1517 1518 1518 1520 1521 1522 1524 1526 1528 1531 1533
1517 1515 1513 1511 1510 1509 1509 1509 1510 1511 1512 1512 1514 1512 1516 1530 1532 1521 1511 1506 1504 1496 1488 1490 1488 1488 1491 1494 1495 1491 1491 1493 1489 1490 1491 1491 1496 1497 1495 1494 1494 1504 1512 1509 1507 1505 1501 1494 1488 1490 1488 1483 1487 1498 1503 1502 1502 1508 1514 1517 1526 1544 1558 1559 1555 1552 1549 1543 1533 1529 1535 1543 1539 1526 1520 1519 1516 1515 1516 1517 1520 1520 1521 1522 1523 1526 1530 1533
1514 1512 1510 1508 1507 1507 1506 1507 1508 1509 1510 1512 1513 1514 1523 1534 1526 1511 1509 1506 1496 1489 1487 1486 1486 1488 1490 1491 1491 1486 1490 1493 1487 1489 1492 1492 1499 1500 1497 1494 1491 1497 1503 1506 1506 1506 1511 1508 1496 1493 1491 1486 1486 1491 1496 1498 1500 1503 1503 1507 1514 1523 1535 1544 1545 1545 1547 1545 1538 1535 1539 1540 1535 1526 1518 1516 1515 1515 1516 1516 1518 1518 1519 1520 1521 1524 1528 1531
1511 1509 1507 1504 1504 1504 1503 1504 1505 1506 1509 1510 1513 1519 1527 1529 1518 1509 1509 1501 1493 1491 1488 1485 1486 1491 1491 1488 1485 1481 1487 1492 1487 1489 1493 1494 1498 1498 1495 1493 1490 1494 1500 1507 1506 1502 1510 1511 1494 1486 1485 1484 1487 1486 1484 1492 1501 1499 1496 1504 1510 1505 1509 1523 1530 1530 1536 1544 1542 1539 1538 1531 1526 1522 1516 1515 1516 1514 1516 1516 1516 1517 1518 1519 1520 1522 1526 1529
1508 1506 1504 1502 1502 1502 1502 1503 1503 1505 1507 1509 1515 1522 1523 1517 1510 1506 1502 1496 1495 1494 1493 1492 1489 1494 1496 1492 1488 1483 1483 1486 1487 1491 1493 1492 1493 1492 1490 1488 1487 1489 1493 1500 1504 1503 1510 1508 1492 1486 1486 1484 1486 1485 1482 1492 1500 1499 1500 1504 1501 1493 1497 1516 1529 1527 1530 1541 1541 1537 1535 1529 1528 1526 1518 1517 1517 1515 1516 1516 1515 1516 1516 1517 1519 1520 1523 1525
1505 1502 1500 1499 1499 1500 1501 1501 1502 1504 1505 1508 1516 1518 1514 1507 1501 1499 1496 1493 1495 1493 1497 1500 1494 1494 1499 1496 1492 1487 1483 1485 1487 1491 1494 1493 1492 1489 1487 1486 1484 1484 1485 1490 1497 1500 1505 1507 1495 1491 1493 1487 1482 1483 1483 1486 1492 1499 1504 1499 1491 1492 1496 1507 1526 1536 1537 1542 1541 1537 1536 1535 1536 1533 1523 1519 1520 1518 1516 1515 1514 1515 1514 1516 1517 1518 1521 1522
1505 1501 1499 1498 1498 1499 1499 1500 1501 1503 1504 1508 1514 1512 1507 1502 1496 1495 1495 1493 1494 1494 1498 1502 1495 1492 1497 1499 1496 1487 1485 1490 1491 1491 1493 1494 1493 1488 1485 1486 1483 1481 1479 1482 1492 1495 1498 1508 1502 1492 1495 1492 1482 1486 1492 1489 1487 1493 1496 1490 1492 1505 1508 1507 1521 1534 1539 1544 1544 1539 1537 1534 1531 1529 1524 1521 1521 1519 1517 1516 1515 1514 1514 1515 1516 1517 1519 1520
1506 1502 1499 1498 1499 1499 1499 1500 1501 1503 1505 1509 1513 1510 1504 1499 1494 1493 1495 1494 1493 1495 1497 1497 1492 1492 1494 1495 1495 1489 1486 1490 1490 1491 1493 1493 1492 1486 1481 1484 1484 1483 1480 1480 1491 1495 1495 1508 1511 1496 1492 1493 1489 1495 1506 1502 1492 1489 1491 1491 1494 1503 1508 1509 1514 1520 1529 1543 1546 1541 1540 1534 1524 1519 1518 1518 1517 1517 1518 1518 1516 1515 1514 1514 1516 1516 1517 1518
1508 1504 1500 1499 1499 1500 1499 1501 1502 1503 1506 1508 1509 1506 1501 1497 1493 1491 1494 1494 1492 1493 1493 1490 1490 1493 1492 1490 1492 1490 1488 1487 1487 1489 1490 1490 1490 1487 1481 1481 1483 1484 1482 1482 1489 1494 1495 1506 1513 1503 1495 1498 1503 1505 1507 1506 1501 1497 1500 1503 1502 1502 1503 1507 1511 1512 1520 1536 1544 1544 1544 1534 1518 1513 1514 1516 1516 1516 1517 1517 1516 1514 1513 1514 1515 1515 1516 1517
1508 1506 1502 1499 1500 1500 1500 1501 1502 1503 1505 1506 1505 1502 1500 1497 1493 1490 1490 1490 1490 1489 1487 1485 1487 1490 1490 1490 1490 1489 1487 1487 1486 1486 1487 1487 1489 1490 1483 1478 1480 1481 1483 1486 1491 1494 1498 1505 1511 1510 1506 1508 1510 1503 1497 1499 1499 1500 1504 1506 1505 1505 1508 1516 1524 1518 1515 1526 1536 1540 1541 1529 1514 1512 1514 1516 1516 1515 1516 1516 1516 1515 1514 1514 1513 1514 1515 1515
1510 1508 1503 1500 1501 1501 1501 1502 1501 1502 1503 1503 1501 1499 1498 1496 1493 1490 1489 1487 1487 1485 1481 1482 1483 1485 1487 1487 1487 1486 1487 1488 1487 1487 1487 1486 1486 1486 1481 1478 1478 1479 1483 1491 1493 1491 1494 1502 1509 1512 1511 1509 1506 1499 1495 1495 1494 1496 1501 1503 1504 1505 1509 1522 1531 1524 1518 1523 1526 1531 1536 1526 1514 1512 1514 1517 1517 1515 1516 1517 1516 1517 1516 1514 1513 1513 1514 1514
1510 1507 1502 1502 1503 1501 1502 1503 1502 1502 1501 1499 1497 1495 1495 1494 1492 1491 1490 1488 1487 1483 1481 1481 1480 1481 1483 1482 1484 1486 1487 1488 1489 1487 1486 1485 1483 1481 1479 1477 1478 1479 1484 1492 1494 1490 1494 1503 1511 1513 1510 1505 1499 1496 1494 1492 1494 1500 1502 1501 1503 1504 1505 1512 1518 1517 1520 1525 1525 1532 1537 1526 1515 1513 1515 1517 1518 1517 1518 1518 1518 1518 1517 1515 1514 1512 1512 1513
1509 1505 1500 1501 1502 1501 1502 1503 1503 1502 1500 1497 1496 1494 1493 1492 1490 1490 1489 1488 1486 1483 1482 1481 1478 1479 1479 1478 1481 1483 1484 1489 1489 1485 1484 1485 1483 1479 1477 1476 1478 1479 1483 1489 1490 1491 1499 1507 1512 1519 1523 1519 1513 1509 1504 1500 1500 1505 1506 1502 1502 1503 1504 1508 1510 1513 1521 1526 1525 1532 1537 1527 1517 1515 1516 1518 1519 1519 1519 1519 1519 1518 1517 1517 1515 1513 1513 1513
1508 1505 1500 1499 1499 1499 1500 1501 1501 1501 1499 1498 1497 1494 1492 1490 1487 1486 1485 1483 1482 1481 1481 1480 1476 1475 1476 1477 1480 1480 1479 1485 1488 1485 1483 1484 1483 1480 1477 1477 1477 1478 1480 1484 1484 1487 1497 1504 1507 1518 1532 1535 1532 1526 1517 1510 1507 1506 1506 1504 1502 1503 1504 1508 1513 1518 1525 1528 1525 1526 1531 1528 1520 1517 1518 1520 1521 1521 1521 1521 1520 1519 1518 1517 1516 1515 1514 1513
1511 1509 1504 1500 1497 1497 1498 1498 1499 1500 1500 1501 1500 1494 1491 1489 1484 1482 1481 1479 1478 1476 1477 1476 1473 1475 1477 1478 1482 1483 1479 1480 1483 1484 1484 1485 1484 1481 1478 1477 1476 1477 1480 1482 1482 1485 1495 1501 1502 1508 1517 1521 1522 1516 1508 1506 1508 1508 1507 1506 1505 1504 1503 1507 1515 1520 1522 1526 1526 1522 1524 1528 1523 1518 1519 1522 1522 1523 1523 1522 1521 1519 1519 1518 1517 1516 1516 1515
1513 1513 1510 1507 1503 1500 1499 1498 1499 1501 1500 1502 1501 1495 1491 1489 1485 1481 1479 1477 1475 1473 1472 1473 1472 1476 1480 1480 1482 1484 1482 1480 1482 1483 1484 1484 1483 1480 1479 1478 1478 1479 1480 1481 1482 1486 1496 1503 1502 1503 1505 1505 1506 1505 1501 1503 1506 1507 1507 1507 1506 1504 1503 1507 1514 1516 1516 1523 1526 1521 1522 1526 1522 1517 1519 1521 1522 1523 1522 1522 1521 1519 1519 1518 1517 1516 1516 1516
1514 1513 1512 1512 1510 1507 1505 1502 1501 1502 1500 1500 1499 1494 1491 1489 1487 1485 1481 1476 1474 1472 1472 1475 1474 1474 1477 1479 1482 1485 1484 1484 1485 1484 1483 1484 1483 1482 1482 1481 1480 1479 1479 1480 1481 1485 1495 1502 1501 1501 1503 1501 1500 1501 1500 1502 1504 1504 1505 1506 1505 1505 1505 1507 1512 1511 1512 1517 1519 1517 1520 1523 1519 1516 1519 1520 1520 1522 1522 1522 1521 1520 1519 1518 1517 1517 1516 1516
1514 1513 1512 1512 1512 1510 1508 1506 1504 1503 1501 1499 1498 1494 1491 1490 1488 1486 1482 1479 1478 1474 1473 1477 1476 1472 1472 1474 1479 1485 1486 1487 1488 1486 1482 1482 1483 1484 1486 1485 1482 1479 1479 1482 1482 1483 1491 1500 1499 1499 1502 1500 1499 1500 1499 1500 1503 1503 1503 1503 1504 1505 1505 1507 1510 1510 1509 1513 1514 1515 1520 1522 1517 1515 1517 1517 1518 1521 1522 1521 1520 1520 1519 1518 1518 1517 1516 1517
1515 1515 1513 1512 1511 1508 1507 1506 1504 1504 1501 1499 1498 1493 1490 1490 1488 1485 1481 1481 1483 1479 1475 1479 1479 1474 1471 1471 1475 1480 1481 1481 1484 1482 1479 1481 1483 1482 1485 1486 1483 1481 1481 1484 1485 1484 1490 1498 1499 1498 1504 1504 1500 1499 1499 1500 1502 1504 1504 1502 1502 1506 1508 1508 1510 1510 1511 1515 1518 1519 1522 1522 1516 1513 1515 1517 1518 1520 1522 1521 1520 1520 1519 1519 1519 1518 1517 1517
1515 1515 1513 1513 1511 1507 1506 1505 1504 1505 1503 1499 1497 1494 1491 1490 1488 1486 1483 1479 1481 1481 1479 1479 1479 1476 1473 1472 1474 1476 1474 1473 1476 1476 1474 1476 1479 1479 1481 1481 1481 1483 1485 1485 1487 1487 1491 1498 1499 1500 1509 1510 1501 1501 1502 1500 1501 1505 1506 1503 1503 1507 1510 1509 1508 1508 1508 1514 1521 1523 1522 1519 1514 1513 1516 1518 1519 1521 1523 1521 1520 1520 1520 1519 1519 1519 1518 1518
1514 1514 1513 1513 1511 1507 1506 1505 1504 1506 1503 1499 1497 1495 1493 1491 1487 1486 1485 1480 1478 1481 1480 1477 1476 1477 1478 1477 1476 1476 1473 1470 1470 1471 1471 1471 1472 1473 1477 1478 1478 1481 1484 1485 1487 1489 1492 1497 1499 1503 1511 1511 1504 1502 1502 1503 1511 1515 1507 1502 1503 1505 1507 1507 1507 1505 1504 1509 1518 1521 1517 1513 1512 1513 1515 1518 1521 1522 1522 1521 1521 1520 1520 1520 1520 1519 1520 1520